| time (UTC) | temp F | wind direction | speed MPH | gust MPH | rain 1hr in | rain 24hr in | rain mn in | humidity % | barometer mb |
| 20260503204121 | 65 | 211 | 17.0 | 36.0 | 0.00 | 0.00 | 0.00 | 44 | 1004.4 |
| 20260503203615 | 65 | 260 | 18.0 | 36.0 | 0.00 | 0.00 | 0.00 | 44 | 1004.8 |
| 20260503203610 | 65 | 173 | 16.0 | 33.0 | 0.00 | 0.00 | 0.00 | 44 | 1004.9 |
| 20260503202602 | 64 | 194 | 16.0 | 33.0 | 0.00 | 0.00 | 0.00 | 44 | 1005.0 |
| 20260503202056 | 64 | 216 | 17.0 | 31.0 | 0.00 | 0.00 | 0.00 | 45 | 1005.1 |
| 20260503201550 | 64 | 203 | 20.0 | 37.0 | 0.00 | 0.00 | 0.00 | 45 | 1005.3 |
| 20260503201545 | 63 | 213 | 21.0 | 37.0 | 0.00 | 0.00 | 0.00 | 44 | 1005.5 |
| 20260503200539 | 63 | 215 | 21.0 | 37.0 | 0.00 | 0.00 | 0.00 | 44 | 1005.3 |
| 20260503200033 | 64 | 223 | 19.0 | 37.0 | 0.00 | 0.00 | 0.00 | 43 | 1005.1 |
| 20260503195527 | 64 | 193 | 16.0 | 28.0 | 0.00 | 0.00 | 0.00 | 41 | 1005.5 |
| 20260503195021 | 65 | 224 | 19.0 | 40.0 | 0.00 | 0.00 | 0.00 | 41 | 1005.5 |
| 20260503194515 | 65 | 212 | 20.0 | 40.0 | 0.00 | 0.00 | 0.00 | 40 | 1005.7 |
| 20260503194009 | 65 | 211 | 18.0 | 33.0 | 0.00 | 0.00 | 0.00 | 40 | 1005.6 |
| 20260503193503 | 65 | 225 | 19.0 | 35.0 | 0.00 | 0.00 | 0.00 | 40 | 1005.7 |
| 20260503192957 | 65 | 214 | 19.0 | 35.0 | 0.00 | 0.00 | 0.00 | 39 | 1006.1 |
| 20260503192451 | 65 | 194 | 18.0 | 32.0 | 0.00 | 0.00 | 0.00 | 39 | 1005.8 |
| 20260503191944 | 65 | 148 | 18.0 | 32.0 | 0.00 | 0.00 | 0.00 | 39 | 1005.6 |
| 20260503191437 | 65 | 225 | 18.0 | 33.0 | 0.00 | 0.00 | 0.00 | 39 | 1005.9 |
| 20260503190932 | 65 | 227 | 19.0 | 33.0 | 0.00 | 0.00 | 0.00 | 39 | 1006.0 |
| 20260503190427 | 64 | 196 | 20.0 | 33.0 | 0.00 | 0.00 | 0.00 | 39 | 1006.1 |
| 20260503185921 | 64 | 217 | 20.0 | 33.0 | 0.00 | 0.00 | 0.00 | 39 | 1006.1 |
| 20260503185415 | 64 | 175 | 18.0 | 37.0 | 0.00 | 0.00 | 0.00 | 39 | 1006.0 |
| 20260503184909 | 64 | 223 | 18.0 | 37.0 | 0.00 | 0.00 | 0.00 | 40 | 1006.1 |
| 20260503184403 | 64 | 207 | 17.0 | 35.0 | 0.00 | 0.00 | 0.00 | 41 | 1006.1 |
| 20260503183857 | 64 | 234 | 14.0 | 27.0 | 0.00 | 0.00 | 0.00 | 41 | 1006.3 |
| 20260503183351 | 63 | 184 | 16.0 | 29.0 | 0.00 | 0.00 | 0.00 | 44 | 1006.4 |
| 20260503182845 | 63 | 209 | 15.0 | 29.0 | 0.00 | 0.00 | 0.00 | 44 | 1006.3 |
| 20260503182339 | 63 | 163 | 14.0 | 25.0 | 0.00 | 0.00 | 0.00 | 45 | 1006.6 |
| 20260503181833 | 62 | 198 | 16.0 | 32.0 | 0.00 | 0.00 | 0.00 | 46 | 1006.8 |
| 20260503181327 | 62 | 229 | 15.0 | 28.0 | 0.00 | 0.00 | 0.00 | 45 | 1006.7 |
| 20260503180819 | 62 | 192 | 16.0 | 28.0 | 0.00 | 0.00 | 0.00 | 46 | 1007.0 |
| 20260503180314 | 61 | 188 | 15.0 | 28.0 | 0.00 | 0.00 | 0.00 | 46 | 1006.8 |
| 20260503175809 | 61 | 166 | 14.0 | 29.0 | 0.00 | 0.00 | 0.00 | 46 | 1007.0 |
| 20260503175304 | 61 | 173 | 14.0 | 29.0 | 0.00 | 0.00 | 0.00 | 48 | 1007.2 |
| 20260503174756 | 60 | 239 | 14.0 | 27.0 | 0.00 | 0.00 | 0.00 | 47 | 1007.1 |
| 20260503174751 | 60 | 230 | 13.0 | 27.0 | 0.00 | 0.00 | 0.00 | 48 | 1007.3 |
| 20260503173744 | 60 | 196 | 14.0 | 30.0 | 0.00 | 0.00 | 0.00 | 48 | 1007.4 |
| 20260503173739 | 59 | 245 | 15.0 | 30.0 | 0.00 | 0.00 | 0.00 | 50 | 1007.6 |
| 20260503172733 | 59 | 131 | 17.0 | 33.0 | 0.00 | 0.00 | 0.00 | 50 | 1007.7 |
| 20260503172226 | 58 | 199 | 17.0 | 33.0 | 0.00 | 0.00 | 0.00 | 50 | 1007.7 |
| 20260503171720 | 58 | 186 | 16.0 | 30.0 | 0.00 | 0.00 | 0.00 | 50 | 1007.6 |
| 20260503171214 | 57 | 257 | 18.0 | 30.0 | 0.00 | 0.00 | 0.00 | 51 | 1008.0 |
| 20260503170709 | 57 | 238 | 15.0 | 30.0 | 0.00 | 0.00 | 0.00 | 51 | 1008.2 |
| 20260503170203 | 58 | 179 | 13.0 | 27.0 | 0.00 | 0.00 | 0.00 | 52 | 1008.2 |
| 20260503150444 | 58 | 196 | 20.0 | 33.0 | 0.00 | 0.00 | 0.00 | 47 | 1009.2 |
| 20260503131319 | 53 | 227 | 14.0 | 24.0 | 0.00 | 0.00 | 0.00 | 51 | 1010.4 |
| 20260503130819 | 52 | 186 | 15.0 | 24.0 | 0.00 | 0.00 | 0.00 | 50 | 1010.4 |
| 20260503130320 | 52 | 279 | 14.0 | 22.0 | 0.00 | 0.00 | 0.00 | 50 | 1010.4 |
| 20260503110813 | 50 | 225 | 11.0 | 15.0 | 0.00 | 0.00 | 0.00 | 48 | 1010.4 |
| 20260503110312 | 49 | 211 | 10.0 | 16.0 | 0.00 | 0.00 | 0.00 | 48 | 1010.4 |
| 20260503100253 | 48 | 226 | 9.0 | 15.0 | 0.00 | 0.00 | 0.00 | 49 | 1010.7 |
| 20260503090141 | 48 | 230 | 8.0 | 12.0 | 0.00 | 0.00 | 0.00 | 49 | 1011.0 |
| 20260503081549 | 48 | 217 | 8.0 | 13.0 | 0.00 | 0.00 | 0.00 | 49 | 1011.4 |
| 20260503081042 | 48 | 173 | 9.0 | 16.0 | 0.00 | 0.00 | 0.00 | 48 | 1011.5 |
| 20260503080536 | 48 | 172 | 9.0 | 16.0 | 0.00 | 0.00 | 0.00 | 48 | 1011.5 |
| 20260503071941 | 47 | 201 | 6.0 | 12.0 | 0.00 | 0.00 | 0.00 | 49 | 1011.8 |
| 20260503071436 | 47 | 224 | 7.0 | 12.0 | 0.00 | 0.00 | 0.00 | 49 | 1011.9 |
| 20260503070930 | 47 | 184 | 7.0 | 13.0 | 0.00 | 0.00 | 0.00 | 50 | 1011.9 |
| 20260503070424 | 47 | 199 | 7.0 | 13.0 | 0.00 | 0.00 | 0.00 | 50 | 1011.9 |
| 20260503060312 | 47 | 201 | 6.0 | 10.0 | 0.00 | 0.00 | 0.00 | 50 | 1012.4 |
| 20260503054752 | 48 | 192 | 7.0 | 13.0 | 0.00 | 0.00 | 0.00 | 49 | 1012.4 |
| 20260503054248 | 48 | 205 | 7.0 | 13.0 | 0.00 | 0.00 | 0.00 | 49 | 1012.6 |
| 20260503053742 | 48 | 184 | 7.0 | 13.0 | 0.00 | 0.00 | 0.00 | 49 | 1012.6 |
| 20260503053234 | 48 | 203 | 7.0 | 13.0 | 0.00 | 0.00 | 0.00 | 49 | 1012.7 |
| 20260503052729 | 48 | 205 | 7.0 | 13.0 | 0.00 | 0.00 | 0.00 | 49 | 1012.7 |
| 20260503052224 | 48 | 231 | 7.0 | 13.0 | 0.00 | 0.00 | 0.00 | 49 | 1012.7 |
| 20260503051718 | 48 | 219 | 7.0 | 11.0 | 0.00 | 0.00 | 0.00 | 49 | 1012.7 |
| 20260503051212 | 48 | 223 | 7.0 | 12.0 | 0.00 | 0.00 | 0.00 | 49 | 1012.7 |
| 20260503050706 | 48 | 196 | 8.0 | 12.0 | 0.00 | 0.00 | 0.00 | 48 | 1012.8 |
| 20260503050158 | 48 | 223 | 8.0 | 11.0 | 0.00 | 0.00 | 0.00 | 49 | 1012.8 |
| 20260503045657 | 48 | 210 | 7.0 | 11.0 | 0.00 | 0.00 | 0.00 | 49 | 1012.7 |
| 20260503045157 | 48 | 219 | 7.0 | 12.0 | 0.00 | 0.00 | 0.00 | 49 | 1012.8 |
| 20260503044657 | 48 | 208 | 8.0 | 13.0 | 0.00 | 0.00 | 0.00 | 49 | 1012.9 |
| 20260503044157 | 48 | 202 | 8.0 | 13.0 | 0.00 | 0.00 | 0.00 | 50 | 1012.9 |
| 20260503043657 | 47 | 225 | 7.0 | 12.0 | 0.00 | 0.00 | 0.00 | 50 | 1012.9 |
| 20260503043157 | 47 | 209 | 7.0 | 11.0 | 0.00 | 0.00 | 0.00 | 51 | 1013.0 |
| 20260503042658 | 47 | 251 | 7.0 | 11.0 | 0.00 | 0.00 | 0.00 | 52 | 1012.9 |
| 20260503042159 | 46 | 223 | 6.0 | 10.0 | 0.00 | 0.00 | 0.00 | 55 | 1013.0 |
| 20260503042155 | 46 | 200 | 6.0 | 11.0 | 0.00 | 0.00 | 0.00 | 53 | 1013.0 |
| 20260503041154 | 45 | 215 | 6.0 | 9.0 | 0.00 | 0.00 | 0.00 | 56 | 1013.3 |
| 20260503040655 | 45 | 217 | 5.0 | 9.0 | 0.00 | 0.00 | 0.00 | 59 | 1013.2 |
| 20260503040155 | 44 | 209 | 5.0 | 10.0 | 0.00 | 0.00 | 0.00 | 60 | 1013.3 |
| 20260503035654 | 44 | 196 | 4.0 | 10.0 | 0.00 | 0.00 | 0.00 | 61 | 1013.2 |
| 20260503035154 | 44 | 199 | 5.0 | 7.0 | 0.00 | 0.00 | 0.00 | 62 | 1013.4 |
| 20260503034654 | 44 | 194 | 5.0 | 9.0 | 0.00 | 0.00 | 0.00 | 62 | 1013.4 |
| 20260503034155 | 44 | 194 | 5.0 | 9.0 | 0.00 | 0.00 | 0.00 | 62 | 1013.4 |
| 20260503033655 | 44 | 208 | 5.0 | 8.0 | 0.00 | 0.00 | 0.00 | 62 | 1013.5 |
| 20260503033150 | 44 | 196 | 3.0 | 8.0 | 0.00 | 0.00 | 0.00 | 62 | 1013.4 |
| 20260503032643 | 44 | 200 | 3.0 | 6.0 | 0.00 | 0.00 | 0.00 | 62 | 1013.4 |
| 20260503032140 | 44 | 199 | 2.0 | 6.0 | 0.00 | 0.00 | 0.00 | 62 | 1013.6 |
| 20260503031640 | 44 | 210 | 2.0 | 6.0 | 0.00 | 0.00 | 0.00 | 61 | 1013.6 |
| 20260503031140 | 44 | 183 | 2.0 | 6.0 | 0.00 | 0.00 | 0.00 | 61 | 1013.6 |
| 20260503030645 | 44 | 183 | 3.0 | 6.0 | 0.00 | 0.00 | 0.00 | 61 | 1013.8 |
| 20260503030641 | 44 | 218 | 3.0 | 6.0 | 0.00 | 0.00 | 0.00 | 61 | 1013.7 |
| 20260503025645 | 44 | 168 | 3.0 | 6.0 | 0.00 | 0.00 | 0.00 | 60 | 1013.7 |
| 20260503025640 | 45 | 183 | 3.0 | 6.0 | 0.00 | 0.00 | 0.00 | 60 | 1013.9 |
| 20260503024642 | 45 | 209 | 3.0 | 8.0 | 0.00 | 0.00 | 0.00 | 59 | 1013.9 |
| 20260503024638 | 45 | 192 | 2.0 | 6.0 | 0.00 | 0.00 | 0.00 | 60 | 1013.9 |
| 20260503024136 | 45 | 192 | 2.0 | 8.0 | 0.00 | 0.00 | 0.00 | 59 | 1013.9 |
| 20260503023137 | 45 | 168 | 4.0 | 8.0 | 0.00 | 0.00 | 0.00 | 59 | 1013.9 |
| 20260503022637 | 45 | 180 | 4.0 | 7.0 | 0.00 | 0.00 | 0.00 | 58 | 1013.8 |
| 20260503022142 | 46 | 200 | 4.0 | 9.0 | 0.00 | 0.00 | 0.00 | 58 | 1013.8 |
| 20260503022137 | 46 | 185 | 4.0 | 9.0 | 0.00 | 0.00 | 0.00 | 58 | 1013.9 |
| 20260503021136 | 46 | 220 | 4.0 | 7.0 | 0.00 | 0.00 | 0.00 | 57 | 1013.9 |
| 20260503020637 | 46 | 194 | 3.0 | 8.0 | 0.00 | 0.00 | 0.00 | 57 | 1013.9 |
| 20260503020136 | 46 | 185 | 4.0 | 9.0 | 0.00 | 0.00 | 0.00 | 56 | 1013.8 |
| 20260503015636 | 47 | 240 | 4.0 | 9.0 | 0.00 | 0.00 | 0.00 | 56 | 1013.9 |
| 20260503015131 | 47 | 163 | 4.0 | 8.0 | 0.00 | 0.00 | 0.00 | 56 | 1013.8 |
| 20260503014624 | 47 | 182 | 4.0 | 10.0 | 0.00 | 0.00 | 0.00 | 55 | 1013.8 |
| 20260503014121 | 47 | 181 | 5.0 | 10.0 | 0.00 | 0.00 | 0.00 | 55 | 1013.6 |
| 20260503014114 | 47 | 200 | 4.0 | 8.0 | 0.00 | 0.00 | 0.00 | 55 | 1013.6 |
| 20260503013111 | 47 | 160 | 4.0 | 8.0 | 0.00 | 0.00 | 0.00 | 54 | 1013.8 |
| 20260503012615 | 48 | 186 | 5.0 | 10.0 | 0.00 | 0.00 | 0.00 | 53 | 1013.6 |
| 20260503012611 | 48 | 144 | 5.0 | 9.0 | 0.00 | 0.00 | 0.00 | 54 | 1013.8 |
| 20260503011610 | 48 | 167 | 6.0 | 10.0 | 0.00 | 0.00 | 0.00 | 52 | 1013.7 |
| 20260503011110 | 49 | 180 | 6.0 | 10.0 | 0.00 | 0.00 | 0.00 | 52 | 1013.8 |
| 20260503010611 | 49 | 159 | 5.0 | 10.0 | 0.00 | 0.00 | 0.00 | 51 | 1013.6 |
| 20260503010116 | 49 | 132 | 6.0 | 10.0 | 0.00 | 0.00 | 0.00 | 49 | 1013.7 |
| 20260503010110 | 49 | 150 | 6.0 | 10.0 | 0.00 | 0.00 | 0.00 | 50 | 1013.6 |
| 20260503005111 | 50 | 153 | 6.0 | 10.0 | 0.00 | 0.00 | 0.00 | 49 | 1013.7 |
| 20260503004612 | 50 | 146 | 6.0 | 11.0 | 0.00 | 0.00 | 0.00 | 48 | 1013.6 |
| 20260503004112 | 50 | 178 | 6.0 | 11.0 | 0.00 | 0.00 | 0.00 | 48 | 1013.6 |
| 20260503003612 | 50 | 142 | 7.0 | 11.0 | 0.00 | 0.00 | 0.00 | 47 | 1013.6 |
| 20260503003111 | 51 | 173 | 8.0 | 13.0 | 0.00 | 0.00 | 0.00 | 47 | 1013.8 |
| 20260503003106 | 51 | 169 | 8.0 | 13.0 | 0.00 | 0.00 | 0.00 | 47 | 1013.8 |
| 20260503002108 | 51 | 163 | 7.0 | 13.0 | 0.00 | 0.00 | 0.00 | 46 | 1013.7 |
| 20260503001606 | 51 | 142 | 8.0 | 13.0 | 0.00 | 0.00 | 0.00 | 46 | 1013.8 |
| 20260503001106 | 51 | 178 | 8.0 | 14.0 | 0.00 | 0.00 | 0.00 | 46 | 1013.8 |
| 20260503000606 | 51 | 182 | 8.0 | 14.0 | 0.00 | 0.00 | 0.00 | 45 | 1013.7 |
| 20260503000108 | 51 | 143 | 8.0 | 13.0 | 0.00 | 0.00 | 0.00 | 45 | 1013.8 |
| 20260502235607 | 51 | 119 | 8.0 | 13.0 | 0.00 | 0.00 | 0.00 | 44 | 1013.9 |
| 20260502235108 | 52 | 169 | 8.0 | 12.0 | 0.00 | 0.00 | 0.00 | 44 | 1013.8 |
| 20260502234603 | 52 | 157 | 7.0 | 12.0 | 0.00 | 0.00 | 0.00 | 44 | 1013.9 |
| 20260502234108 | 52 | 145 | 8.0 | 12.0 | 0.00 | 0.00 | 0.00 | 44 | 1013.9 |
| 20260502234104 | 52 | 159 | 7.0 | 12.0 | 0.00 | 0.00 | 0.00 | 44 | 1014.0 |
| 20260502233720 | 52 | 115 | 7.0 | 13.0 | 0.00 | 0.00 | 0.00 | 44 | 1014.1 |
| 20260502233716 | 52 | 150 | 7.0 | 13.0 | 0.00 | 0.00 | 0.00 | 44 | 1014.0 |
| 20260502232716 | 52 | 169 | 8.0 | 12.0 | 0.00 | 0.00 | 0.00 | 44 | 1014.1 |
| 20260502231604 | 53 | 144 | 8.0 | 12.0 | 0.00 | 0.00 | 0.00 | 43 | 1014.1 |
| 20260502231103 | 53 | 140 | 8.0 | 12.0 | 0.00 | 0.00 | 0.00 | 43 | 1014.2 |
| 20260502230608 | 52 | 176 | 9.0 | 14.0 | 0.00 | 0.00 | 0.00 | 43 | 1014.4 |
| 20260502230603 | 52 | 123 | 8.0 | 14.0 | 0.00 | 0.00 | 0.00 | 43 | 1014.4 |
| 20260502230214 | 53 | 134 | 8.0 | 14.0 | 0.00 | 0.00 | 0.00 | 42 | 1014.4 |
| 20260502225102 | 53 | 130 | 8.0 | 13.0 | 0.00 | 0.00 | 0.00 | 42 | 1014.6 |
| 20260502224602 | 53 | 131 | 7.0 | 12.0 | 0.00 | 0.00 | 0.00 | 42 | 1014.6 |
| 20260502224105 | 53 | 175 | 6.0 | 12.0 | 0.00 | 0.00 | 0.00 | 41 | 1014.8 |
| 20260502224100 | 53 | 148 | 7.0 | 11.0 | 0.00 | 0.00 | 0.00 | 41 | 1014.8 |
| 20260502223600 | 54 | 131 | 6.0 | 11.0 | 0.00 | 0.00 | 0.00 | 41 | 1014.8 |
| 20260502222559 | 53 | 126 | 7.0 | 12.0 | 0.00 | 0.00 | 0.00 | 41 | 1015.0 |
| 20260502222058 | 53 | 132 | 8.0 | 12.0 | 0.00 | 0.00 | 0.00 | 42 | 1014.9 |
| 20260502221600 | 53 | 105 | 8.0 | 12.0 | 0.00 | 0.00 | 0.00 | 41 | 1014.8 |
| 20260502221059 | 54 | 150 | 7.0 | 12.0 | 0.00 | 0.00 | 0.00 | 42 | 1014.9 |
| 20260502220559 | 53 | 130 | 8.0 | 12.0 | 0.00 | 0.00 | 0.00 | 42 | 1015.1 |
| 20260502220059 | 54 | 149 | 8.0 | 12.0 | 0.00 | 0.00 | 0.00 | 42 | 1015.1 |
| 20260502215554 | 54 | 121 | 8.0 | 12.0 | 0.00 | 0.00 | 0.00 | 42 | 1015.0 |
| 20260502215047 | 54 | 81 | 7.0 | 12.0 | 0.00 | 0.00 | 0.00 | 41 | 1015.2 |
| 20260502214542 | 54 | 137 | 7.0 | 12.0 | 0.00 | 0.00 | 0.00 | 41 | 1015.2 |
| 20260502214036 | 53 | 93 | 7.0 | 13.0 | 0.00 | 0.00 | 0.00 | 41 | 1015.2 |
| 20260502213530 | 53 | 146 | 7.0 | 14.0 | 0.00 | 0.00 | 0.00 | 42 | 1015.2 |
| 20260502213024 | 53 | 117 | 8.0 | 14.0 | 0.00 | 0.00 | 0.00 | 42 | 1015.2 |
| 20260502212518 | 53 | 80 | 10.0 | 15.0 | 0.00 | 0.00 | 0.00 | 42 | 1015.3 |
| 20260502212013 | 53 | 106 | 9.0 | 15.0 | 0.00 | 0.00 | 0.00 | 41 | 1015.1 |
| 20260502211506 | 54 | 103 | 8.0 | 12.0 | 0.00 | 0.00 | 0.00 | 39 | 1015.4 |
| 20260502211000 | 54 | 130 | 7.0 | 12.0 | 0.00 | 0.00 | 0.00 | 39 | 1015.4 |
| 20260502210454 | 55 | 128 | 7.0 | 11.0 | 0.00 | 0.00 | 0.00 | 38 | 1015.3 |
| 20260502205948 | 55 | 125 | 6.0 | 11.0 | 0.00 | 0.00 | 0.00 | 38 | 1015.4 |
| 20260502205442 | 54 | 170 | 6.0 | 9.0 | 0.00 | 0.00 | 0.00 | 38 | 1015.6 |
| 20260502204936 | 54 | 109 | 7.0 | 14.0 | 0.00 | 0.00 | 0.00 | 37 | 1015.6 |